Home   Weather   Playa de las Américas   Past weeks
Flag for Spain

Past Weather in Playa de las Américas, Canary Islands, Spain — Yesterday and Last 2 Weeks

Now
75 °F

Scattered clouds.


Feels Like: 77 °F
Forecast: 69 / 60 °F
Wind: 12 mph from Southwest

Location: Tenerife Sur

Current Time: Jun 1, 2020 at 2:18:02 pm

Latest Report: Jun 1, 2020 at 1:30 pm


Visibility: N/A

Pressure: 30.01 "Hg

Humidity: 65%

Dew Point: 63 °F

Location of Playa de las AméricasLocation

Past Weather in Playa de las Américas — Graph

°F

Playa de las Américas Temperature Yesterday

Maximum temperature yesterday: 75 °F (at 1:30 pm)
Minimum temperature yesterday: 70 °F (at 12:00 am)
Average temperature yesterday: 72 °F

High & Low Weather Summary for the Past Weeks

 TemperatureHumidityPressure
High93 °F (May 23, 1:00 pm)100% (May 26, 4:30 am)30.18 "Hg (May 26, 4:30 am)
Low61 °F (May 22, 7:30 am)21% (May 23, 1:00 pm)29.92 "Hg (May 30, 5:00 am)
Average72 °F67%30.05 "Hg
* Reported May 17 1:00 pm — Jun 1 1:00 pm, Playa de las Américas. Weather by CustomWeather, © 2020

Note: Actual official high and low records may vary slightly from our data, if they occured in-between our weather recording intervals... More about our weather records

Playa de las Américas Weather History for the Previous 24 Hours

Scroll right to see more
 ConditionsComfort  
Time TempWeatherWind HumidityBarometerVisibility
1:00 pm
Mon, Jun 1
75 °FScattered clouds.9 mph65%30.01 "HgN/A
12:30 pm75 °FScattered clouds.7 mph65%30.01 "HgN/A
12:00 pm73 °FPartly sunny.6 mph69%30.01 "HgN/A
11:30 am73 °FPartly sunny.7 mph74%30.01 "HgN/A
11:00 am73 °FPartly sunny.6 mph69%30.01 "HgN/A
10:30 am72 °FPartly sunny.5 mph73%30.01 "HgN/A
10:00 am72 °FPartly sunny.6 mph73%30.01 "HgN/A
9:30 am72 °FPartly sunny.5 mph78%29.98 "HgN/A
9:00 am70 °FPartly sunny.3 mph83%29.98 "HgN/A
8:30 am70 °FPartly sunny.3 mph83%29.98 "HgN/A
8:00 am70 °FPartly sunny.3 mph83%29.98 "HgN/A
7:30 am70 °FPartly sunny.3 mph83%29.98 "HgN/A
7:00 am70 °FPassing clouds.3 mph83%29.98 "HgN/A
6:30 am70 °FPassing clouds.5 mph83%29.98 "HgN/A
6:00 am70 °FPassing clouds.3 mph83%29.98 "HgN/A
5:30 am70 °FPassing clouds.5 mph83%29.98 "HgN/A
5:00 am70 °FPassing clouds.5 mph83%29.98 "HgN/A
4:30 am70 °FPassing clouds.5 mph83%29.98 "HgN/A
4:00 am70 °FPassing clouds.2 mph83%29.98 "HgN/A
3:30 am70 °FPassing clouds.1 mph78%29.98 "HgN/A
3:00 am70 °FPassing clouds.2 mph83%29.98 "HgN/A
2:30 am70 °FPassing clouds.3 mph78%29.98 "HgN/A
2:00 am70 °FPassing clouds.5 mph83%30.01 "HgN/A
1:30 am70 °FPassing clouds.6 mph83%30.01 "HgN/A
1:00 am70 °FPassing clouds.5 mph83%30.01 "HgN/A
12:30 am70 °FPassing clouds.6 mph83%30.01 "HgN/A
12:00 am70 °FPassing clouds.6 mph83%30.01 "HgN/A
11:30 pm
Sun, May 31
72 °FPassing clouds.6 mph78%30.01 "HgN/A
11:00 pm72 °FPassing clouds.6 mph78%30.01 "HgN/A
10:30 pm72 °FPassing clouds.6 mph78%30.01 "HgN/A
10:00 pm72 °FPassing clouds.5 mph73%29.98 "HgN/A
9:30 pm72 °FPassing clouds.5 mph73%29.98 "HgN/A
9:00 pm72 °FPassing clouds.6 mph73%29.98 "HgN/A
8:30 pm72 °FScattered clouds.6 mph73%29.98 "HgN/A
8:00 pm72 °FScattered clouds.6 mph73%29.95 "HgN/A
7:30 pm73 °FScattered clouds.7 mph69%29.95 "HgN/A
7:00 pm73 °FScattered clouds.7 mph69%29.95 "HgN/A
6:30 pm73 °FScattered clouds.8 mph69%29.95 "HgN/A
6:00 pm75 °FScattered clouds.8 mph65%29.95 "HgN/A
5:30 pm75 °FScattered clouds.8 mph65%29.95 "HgN/A
5:00 pm73 °FScattered clouds.9 mph69%29.95 "HgN/A
4:30 pm75 °FScattered clouds.8 mph69%29.95 "HgN/A
4:00 pm75 °FScattered clouds.8 mph65%29.95 "HgN/A
3:30 pm73 °FPartly sunny.8 mph74%29.98 "HgN/A
3:00 pm73 °FPartly sunny.9 mph69%29.98 "HgN/A
2:30 pm75 °FPartly sunny.8 mph69%29.98 "HgN/A
2:00 pm73 °FPartly sunny.7 mph65%29.98 "HgN/A
Weather by CustomWeather, © 2020

See weather overview

Advertising